Location: Heiligenberg
(48.5381°N, 7.3897°E)
Time: 21:10:54
(UTC+00:00)

COSMOS 2428 - Pass Details

Date: 26 May 2022
Orbit: 846 x 855 km, 70.9° (Epoch: 04 July)

Event Time Altitude Azimuth Distance (km) Brightness Sun altitude
Exits shadow 01:12:20 11° 256° (WSW) 2,407 4.7 -16.5°
Maximum altitude 01:16:58 28° 314° (NW) 1,541 4.2 -16.2°
Drops below altitude 10° 01:21:50 10° 13° (NNE) 2,480 6.4 -15.8°
Sets 01:24:39 0° 25° (NNE) 3,420 7.7 -15.6°
